Theta_e
311 311 310 310 312 313 314 313 312 310 310 312 312 312 317 321 319 316 316 317 317 315 313 314 314 314 318 322 324 323 321 322 324 326 329 333 335 336 339 342 342 342 342 342 342 341 341 340 340 340 340 340 340 340 340 339 339 338 338 337 337 337 336 336 336 335 335 334 333 332 332 331 330 330 330 329 328 327 327 326 325 324 322 321 319 317 316
314 314 314 314 315 317 318 317 315 311 310 312 312 312 315 318 318 318 317 316 316 314 313 313 313 316 321 323 323 322 322 324 327 329 330 335 339 339 340 342 342 341 342 341 341 341 340 340 339 339 339 339 339 340 340 339 339 338 338 337 337 337 336 336 336 335 335 334 333 332 332 331 330 329 328 328 326 325 326 326 324 323 322 320 318 317 316
316 316 317 316 316 318 319 319 319 315 312 312 312 312 316 317 317 317 316 316 315 313 313 315 318 321 324 323 322 323 326 326 328 329 330 334 341 342 341 342 341 341 342 341 341 341 340 339 339 339 339 339 339 339 339 339 339 338 338 338 337 337 336 336 336 335 335 334 333 332 332 331 329 328 327 326 325 325 324 324 323 322 321 320 318 317 316
316 317 319 317 315 317 318 320 324 320 314 315 315 314 316 316 315 315 316 316 314 312 314 321 326 327 325 324 324 327 328 325 326 330 331 333 340 343 342 342 342 342 341 341 340 340 339 339 338 338 338 339 339 339 339 339 339 338 338 338 337 337 336 336 335 335 334 333 333 332 331 330 328 327 326 325 324 323 322 322 322 321 320 320 319 317 315
316 317 319 317 316 319 320 320 322 320 318 317 316 315 316 316 314 315 316 314 312 314 318 324 329 328 325 325 325 327 326 325 327 331 331 334 340 343 342 341 341 341 341 340 340 340 339 338 338 338 338 338 338 338 339 339 338 338 338 337 337 337 336 336 335 334 334 333 332 332 331 329 327 326 326 324 323 323 322 321 321 320 320 319 319 317 315
318 318 319 317 316 320 322 320 318 318 319 317 316 316 315 315 314 315 315 313 313 317 320 325 330 328 325 324 324 324 325 326 329 332 333 336 340 342 341 341 341 341 340 340 339 338 339 338 338 338 338 338 338 338 338 338 338 338 338 337 337 337 336 336 335 334 334 332 332 331 330 329 327 325 325 323 323 324 322 320 319 319 319 319 318 316 314
320 320 319 319 319 321 322 319 318 320 320 318 319 320 317 317 321 322 322 319 317 316 318 328 334 329 324 324 323 323 323 324 328 332 334 338 342 343 341 341 341 341 340 340 339 337 338 338 337 337 337 337 337 338 338 338 338 338 338 337 337 337 336 335 334 334 333 332 331 330 329 327 326 325 324 322 322 322 321 320 320 320 319 318 317 315 314
319 319 319 320 320 319 319 317 318 321 320 319 322 323 321 320 322 324 326 325 324 321 323 332 334 325 322 323 322 321 322 323 327 331 333 337 343 345 344 342 343 342 339 338 338 337 337 337 337 337 337 337 337 337 337 338 338 338 338 337 337 336 336 335 334 333 332 331 331 329 328 326 325 323 322 322 322 321 319 319 320 320 319 318 317 315 314
317 320 321 320 319 318 318 318 319 321 321 321 322 324 324 323 321 323 325 326 326 325 327 332 331 325 323 324 321 319 320 322 326 329 331 335 340 341 340 340 340 338 337 337 337 336 337 337 337 337 337 337 337 337 337 337 337 338 337 337 337 336 335 334 333 332 332 331 330 328 327 325 324 322 322 322 321 320 319 319 319 319 319 318 317 316 314
317 320 321 321 321 320 317 317 319 320 320 320 320 322 326 326 323 323 324 324 325 325 326 329 329 327 324 323 321 318 318 319 320 322 327 333 338 338 337 338 337 335 336 337 336 336 337 336 336 337 337 337 337 336 336 337 337 337 337 337 336 336 335 334 333 332 332 331 329 327 326 325 324 323 322 322 321 321 320 320 319 319 319 317 316 316 315
319 320 321 321 322 321 318 317 318 318 320 320 320 323 326 325 322 322 323 324 325 325 325 327 327 328 327 324 321 319 319 318 317 317 321 329 335 334 332 334 337 335 335 337 336 336 336 336 336 337 336 336 336 336 336 336 336 337 337 336 336 335 334 333 332 332 331 331 329 327 326 325 324 324 323 322 322 321 321 321 321 320 319 317 316 315 315
319 319 321 321 321 320 319 318 317 317 319 320 321 324 324 322 321 323 323 323 324 324 325 326 327 328 327 323 321 322 323 322 321 323 325 327 331 332 329 331 336 336 335 336 336 336 336 336 336 336 336 336 336 336 336 336 336 336 336 336 336 335 334 332 332 332 331 330 329 327 326 325 325 324 324 322 321 320 320 321 321 320 318 317 316 315 313
319 320 320 320 321 321 320 318 317 318 319 320 322 324 322 320 321 323 322 322 324 324 325 325 327 327 325 324 325 325 326 331 332 333 332 327 325 327 329 331 334 335 335 335 336 336 336 336 336 336 336 336 335 335 335 335 336 336 336 336 335 334 333 332 331 331 330 329 329 328 327 326 325 324 323 322 321 320 320 319 319 318 317 315 314 313 312
319 319 320 321 321 320 319 318 318 319 321 322 322 321 320 320 321 322 322 322 323 324 324 325 326 326 325 326 326 325 328 336 338 339 339 333 326 326 329 331 333 334 334 335 336 336 337 336 336 336 336 336 335 335 335 335 335 336 335 335 334 333 332 331 331 330 329 329 329 328 327 325 323 322 322 321 321 320 319 318 317 316 315 314 312 312 312
319 320 321 323 321 319 318 318 318 319 320 321 321 320 321 320 320 321 321 322 322 323 325 324 324 325 325 325 325 327 331 334 334 337 341 340 335 332 331 331 332 333 334 334 335 336 337 336 336 336 335 334 334 334 334 335 335 335 335 334 334 333 332 331 330 329 329 329 328 327 325 324 323 322 320 320 319 318 317 316 315 314 313 313 312 312 311
319 320 321 322 322 320 319 319 319 319 320 321 321 322 321 319 319 321 321 321 321 322 323 323 324 325 325 325 326 329 332 331 330 333 337 340 342 340 334 331 331 332 333 335 334 335 336 336 336 336 335 333 332 333 335 335 335 335 334 333 333 332 331 331 330 329 328 328 326 325 324 322 321 320 319 319 318 317 315 314 313 313 312 312 311 311 310
319 320 320 320 321 321 320 320 320 320 320 320 322 322 321 320 320 320 321 321 322 322 321 322 324 325 325 325 324 325 329 330 330 334 337 339 340 338 332 329 330 332 333 334 334 333 334 334 335 336 335 333 332 333 334 335 335 334 333 333 332 332 331 330 329 328 326 325 324 323 323 322 321 320 319 318 316 315 314 314 313 312 311 311 311 310 310
317 319 319 318 319 319 319 320 321 321 320 321 322 321 321 321 321 320 320 321 322 321 321 322 324 325 325 324 324 323 325 327 327 330 335 336 334 333 331 328 328 331 332 333 333 332 331 333 335 336 336 335 333 333 334 334 334 334 333 332 331 331 329 328 327 326 325 323 322 322 322 322 322 321 319 317 316 315 315 314 313 312 311 311 311 310 310
316 318 316 316 316 316 317 320 321 321 321 321 321 321 321 321 321 321 321 321 321 321 321 322 324 325 324 324 325 324 324 325 325 327 331 333 332 331 331 329 328 329 331 332 333 331 330 332 334 334 334 333 332 332 332 332 332 332 332 331 330 329 327 326 326 325 324 322 321 321 321 321 320 319 318 317 316 315 314 313 312 312 311 311 310 310 310
315 314 312 312 313 313 316 321 323 323 322 320 320 320 321 322 321 320 320 321 321 321 321 321 323 325 324 324 325 325 324 324 324 324 326 329 328 326 326 326 327 327 327 329 330 328 327 329 330 330 331 331 330 330 330 330 329 329 329 329 328 326 324 324 324 323 323 321 320 320 320 320 319 318 318 317 316 316 315 315 313 312 311 311 312 312 311
311 311 310 310 310 310 312 316 318 320 322 322 321 320 321 321 321 320 320 321 321 320 321 321 323 324 325 324 324 324 325 325 325 325 325 326 326 324 323 325 326 325 324 325 325 324 325 327 328 329 329 329 329 330 330 329 327 326 326 327 326 324 323 322 321 321 321 321 320 320 319 319 319 318 318 318 318 317 317 318 317 316 314 314 314 314 312
309 309 308 308 310 311 311 310 311 313 318 322 322 321 321 321 321 321 321 321 320 320 320 320 322 324 324 323 323 324 324 324 325 325 324 325 325 324 323 324 324 324 324 324 324 324 325 325 326 327 326 326 327 328 328 328 327 325 326 326 324 322 322 321 320 320 320 319 320 319 319 318 318 317 316 316 317 317 317 316 316 317 316 316 315 314 312
309 308 307 308 309 310 309 309 309 311 316 322 323 321 321 321 320 321 322 321 321 321 320 319 321 323 324 324 324 324 324 324 325 323 323 325 326 325 323 323 323 323 323 324 324 324 324 325 325 326 326 325 326 326 326 326 326 325 325 324 322 321 321 320 319 319 319 319 319 318 318 317 317 316 315 314 314 315 315 315 314 314 315 315 315 314 313
307 307 307 308 308 308 308 308 308 310 316 322 323 322 322 322 321 321 321 321 321 321 321 319 319 322 324 325 325 323 324 325 324 323 322 323 323 324 323 322 321 322 323 324 325 324 324 325 325 325 326 326 326 326 326 326 326 326 325 324 322 320 319 319 319 319 319 318 318 317 317 316 316 315 314 313 312 312 313 313 313 313 314 314 314 314 314
307 307 307 308 308 309 309 309 312 316 320 322 322 322 323 323 322 321 321 322 322 322 321 320 320 320 323 326 326 324 324 323 321 320 321 321 321 323 323 322 322 324 324 325 325 325 325 325 325 325 326 326 326 326 326 326 325 325 325 324 322 320 319 318 318 318 318 317 317 317 316 315 315 314 314 313 312 311 311 311 312 312 312 313 313 313 313
309 309 309 310 311 311 311 313 318 323 325 324 323 324 324 323 323 322 321 321 322 322 322 323 322 320 320 323 324 324 323 322 320 319 320 321 322 322 323 323 324 325 326 326 325 325 325 325 325 325 325 325 326 325 325 325 324 324 323 322 321 321 320 319 318 318 318 317 317 316 316 315 315 315 314 314 313 311 310 309 309 309 310 310 311 311 311
311 311 311 313 313 313 312 313 316 319 322 324 325 324 323 321 319 320 321 321 321 320 319 319 319 319 319 320 320 321 321 321 322 321 321 321 323 323 324 325 325 325 326 325 325 325 325 324 324 324 324 324 325 325 324 324 324 323 323 321 320 320 320 320 318 318 317 317 317 316 315 315 315 314 313 313 312 311 310 309 308 307 307 308 308 309 309
311 311 312 313 313 312 312 312 313 316 320 324 325 323 321 320 321 322 325 326 324 321 319 317 316 319 324 323 321 323 324 322 322 324 322 321 323 323 323 325 325 325 324 324 323 324 324 323 323 323 322 323 324 324 324 323 322 321 321 320 319 318 318 317 317 317 316 316 316 315 314 314 313 313 312 311 311 311 311 310 309 307 307 307 307 307 308
310 310 311 312 311 311 311 312 313 316 319 322 323 322 321 323 325 326 328 328 325 321 319 318 317 319 322 323 322 324 325 324 323 323 322 321 322 323 323 324 324 323 322 322 322 323 322 322 322 321 322 323 324 324 323 322 321 321 321 320 319 318 317 317 317 316 315 315 314 314 314 313 313 312 311 311 311 311 310 310 309 308 307 307 307 307 308
308 310 311 311 311 311 311 312 313 315 317 320 323 324 323 323 326 326 325 324 323 321 321 323 324 321 320 321 322 322 323 323 322 321 321 322 322 322 323 323 323 322 322 321 321 321 321 321 320 320 321 322 323 323 323 322 321 321 321 320 319 318 317 316 316 315 314 314 314 314 313 313 312 312 311 310 310 310 309 309 308 307 307 307 307 307 308
308 309 310 310 310 310 311 312 313 314 316 320 324 326 325 325 326 327 325 323 323 322 321 323 326 326 322 320 320 321 322 322 322 320 321 322 322 322 323 323 323 322 322 321 321 321 321 321 320 320 321 322 322 322 322 322 321 320 319 318 317 317 317 316 316 315 315 314 313 313 313 312 311 311 310 309 309 308 307 307 307 307 307 307 307 307 307
307 309 310 310 310 310 311 312 313 313 315 319 323 325 325 324 325 326 324 322 320 320 321 322 323 322 318 317 319 321 321 320 320 320 321 321 321 322 322 321 322 322 321 321 321 321 321 321 320 320 321 321 321 321 322 322 321 320 319 318 317 316 316 316 316 315 315 314 313 312 312 311 311 310 310 309 308 308 307 307 307 307 307 307 307 307 306
307 309 309 309 310 310 311 313 313 312 313 317 322 323 322 322 323 323 322 320 319 321 323 321 317 314 313 315 318 319 318 319 321 322 321 320 320 321 321 321 321 321 321 321 321 320 320 320 319 319 320 320 320 321 321 322 321 320 318 318 317 316 316 316 315 315 314 313 313 312 312 311 311 310 310 309 308 308 307 307 307 307 306 306 306 306 306
306 307 308 309 309 310 311 312 313 312 312 316 321 322 319 320 322 321 319 320 321 321 319 315 312 312 314 314 313 313 316 324 328 325 321 319 320 320 320 321 321 321 321 321 321 321 321 320 319 320 320 320 320 320 321 321 321 320 319 318 318 317 315 315 315 314 313 312 312 312 311 311 311 310 310 309 308 308 308 307 307 306 306 305 305 306 305
305 305 306 307 308 309 311 311 311 311 313 317 320 318 315 318 322 321 318 317 318 316 313 311 311 313 314 314 314 315 316 320 321 319 317 318 320 320 320 321 321 321 320 321 321 321 321 321 320 320 320 320 320 321 320 320 320 319 318 318 317 316 315 314 313 313 313 312 312 311 311 310 310 310 310 309 309 309 308 307 307 306 306 306 305 305 305
303 303 304 306 308 309 310 310 310 311 313 318 320 318 315 316 319 320 319 315 313 312 312 311 312 313 313 315 318 319 317 314 313 315 318 320 320 320 320 320 320 320 319 319 320 321 321 321 321 320 320 320 320 320 319 319 319 318 317 317 316 315 314 313 312 312 312 312 311 311 311 310 310 310 310 309 309 309 308 308 307 307 307 307 307 306 305
302 303 304 306 308 309 309 309 310 310 312 315 318 318 316 314 313 314 315 313 311 311 311 310 311 314 314 313 313 315 315 315 316 317 319 320 320 320 319 318 318 319 319 318 319 320 320 321 321 320 320 320 320 319 319 319 318 318 317 316 315 315 314 312 312 312 312 312 312 311 311 310 310 309 309 309 309 308 308 308 307 307 307 307 307 306 305
302 302 304 306 307 308 308 309 310 310 310 314 315 314 313 312 311 311 312 311 310 310 311 310 311 312 311 310 311 312 313 316 318 318 318 319 319 317 315 313 314 316 318 320 321 321 321 321 321 320 320 321 320 320 320 320 320 319 318 317 316 315 314 313 312 312 312 311 311 311 310 310 309 309 308 308 308 308 308 308 308 307 307 306 306 305 305
301 303 304 305 305 306 307 309 309 309 311 315 317 314 312 311 310 309 309 309 309 310 311 312 313 313 310 309 310 311 311 314 317 317 316 317 318 315 312 312 313 315 317 319 320 321 321 321 321 320 321 320 320 320 320 320 320 319 318 317 316 315 315 314 313 312 312 311 311 310 310 310 309 309 308 308 308 308 308 308 308 307 307 306 306 305 305
301 303 303 303 303 305 308 309 309 309 310 312 313 313 312 311 309 308 308 309 309 310 311 311 312 312 310 309 310 310 310 313 314 313 313 315 315 314 314 315 315 315 317 318 319 320 321 321 321 321 320 320 320 321 320 320 320 319 318 317 316 316 315 314 313 313 312 312 311 311 310 310 309 309 309 308 308 308 308 308 308 307 307 306 306 306 305
301 302 302 302 303 306 308 309 309 311 311 310 310 311 311 310 309 308 308 308 309 309 310 310 309 308 308 309 310 310 311 312 312 312 313 313 310 311 315 316 315 315 317 319 319 320 321 321 321 321 320 320 320 321 320 319 319 318 317 316 316 316 315 314 314 313 313 312 312 311 310 310 310 309 309 309 309 308 308 308 308 308 307 307 306 306 306
301 301 301 301 303 306 309 309 310 311 311 310 310 310 310 311 310 308 308 308 308 308 308 309 309 310 311 312 311 311 310 310 310 311 312 310 308 310 315 315 313 314 318 319 318 320 321 321 320 320 320 320 321 321 319 318 317 316 316 316 316 316 315 314 313 313 313 312 312 311 310 310 310 309 309 309 309 308 308 308 308 308 307 307 307 306 306
299 299 300 301 303 307 309 310 310 311 310 309 308 309 309 310 309 308 308 308 308 308 308 308 310 311 312 311 309 308 308 308 308 308 308 308 308 311 313 313 312 314 317 318 317 318 319 318 318 319 319 319 319 319 319 318 317 317 316 316 316 315 315 314 313 313 313 312 311 311 310 310 310 309 309 309 308 308 309 308 308 308 308 307 306 306 306
298 299 300 301 304 308 310 309 310 310 310 309 308 308 309 308 308 307 308 308 309 309 309 309 309 309 309 309 308 307 307 307 308 307 307 308 309 310 311 312 313 314 315 316 317 317 316 316 316 316 317 317 317 318 318 318 317 316 316 316 315 315 314 313 313 313 312 311 311 311 310 310 310 309 309 309 308 308 308 308 308 308 307 307 306 306 305
297 298 299 302 305 308 309 309 309 310 309 308 308 308 308 308 306 306 308 309 310 309 309 309 309 309 309 308 308 307 307 308 308 309 310 312 312 310 309 311 313 313 314 315 316 316 316 316 315 315 316 316 316 317 317 317 317 316 316 315 315 314 313 312 312 312 312 311 311 311 310 310 310 309 309 309 308 308 308 308 308 307 307 307 306 306 305
296 298 300 304 307 309 309 309 308 308 308 308 309 309 308 307 306 306 308 309 310 310 310 310 311 310 310 309 308 308 308 308 308 308 309 311 311 309 308 310 311 312 312 313 314 314 315 315 315 316 316 316 315 315 315 315 315 315 315 314 314 313 313 312 312 312 312 311 311 311 310 310 310 309 309 309 308 308 308 308 307 307 307 307 306 306 305
297 300 302 305 307 309 309 308 308 309 309 311 311 310 307 305 305 306 307 309 310 310 309 309 310 310 310 310 309 309 308 307 307 307 308 308 308 308 309 309 310 310 311 311 311 311 313 313 314 315 316 315 315 315 315 314 314 314 314 314 313 313 313 312 312 312 312 312 311 311 310 310 309 309 309 309 308 308 308 308 307 307 307 307 306 306 305
299 301 303 304 306 308 308 307 308 310 311 311 310 308 306 305 305 305 306 307 308 308 307 307 308 308 308 308 308 308 307 307 308 307 307 306 307 307 307 307 308 308 309 310 310 310 310 311 312 312 313 313 313 314 314 314 314 315 315 314 313 313 313 312 312 312 312 311 311 311 310 309 309 309 308 308 307 306 306 307 307 307 306 306 305 305 305
297 299 300 302 305 307 306 306 309 311 310 308 306 305 305 305 305 304 304 305 305 306 306 306 306 307 307 307 307 307 307 307 308 307 306 306 306 306 306 306 307 307 307 308 308 309 309 310 310 311 311 312 312 312 312 312 313 313 314 314 313 313 313 312 312 312 312 311 311 310 309 309 308 307 307 307 306 306 306 306 306 306 306 305 305 305 305
295 296 297 298 300 302 302 303 306 306 305 304 304 305 304 304 303 302 303 304 304 304 304 304 305 306 306 306 306 307 307 307 307 306 306 306 306 306 305 306 306 306 307 307 307 308 308 309 309 310 311 311 311 311 311 311 311 312 313 313 313 313 312 312 312 311 311 311 310 310 309 308 307 307 307 307 306 306 306 306 306 305 305 305 305 304 304
293 294 294 295 297 298 298 299 300 301 301 303 304 304 303 302 302 301 301 302 302 302 301 301 302 303 305 306 306 306 307 306 306 306 306 306 306 306 306 306 305 306 306 306 306 306 307 307 308 309 309 309 309 310 310 310 311 311 312 312 312 312 312 311 311 310 310 310 309 309 308 307 306 306 306 306 306 306 306 306 306 305 304 304 304 303 303
292 292 292 293 294 295 295 296 296 297 298 299 301 301 301 301 300 300 300 300 300 299 299 298 298 299 302 304 305 306 306 306 306 306 306 306 306 306 306 306 306 305 305 305 305 306 306 306 307 308 308 308 308 308 309 309 309 309 310 310 310 310 310 310 310 310 309 309 307 307 306 306 306 305 305 305 304 304 305 306 305 304 304 304 304 304 303
Wind_Speed
10 10 12 11 8 7 8 8 8 9 10 9 10 10 8 6 4 7 9 6 8 13 14 14 13 11 10 10 9 8 7 7 8 10 13 13 10 12 14 15 15 16 17 18 19 18 18 21 25 26 28 29 30 31 32 32 34 35 35 35 35 34 34 33 33 34 33 31 31 31 32 32 32 33 33 33 33 32 32 31 31 31 31 30 29 28 27
8 7 9 10 8 6 6 8 8 8 10 11 12 12 8 6 7 9 9 10 13 14 14 14 14 11 9 9 8 6 5 7 8 10 13 11 9 11 13 15 16 15 16 17 18 18 17 19 22 24 26 28 29 30 31 31 32 34 35 35 35 34 34 33 32 33 33 32 31 31 32 32 32 33 33 33 33 33 32 31 32 32 30 29 29 28 28
6 5 7 9 8 6 5 7 7 7 8 9 9 8 6 5 8 10 9 10 13 13 12 12 11 9 7 8 8 6 5 6 8 10 12 10 7 9 11 14 14 15 15 15 16 17 17 19 24 26 27 29 31 31 31 32 33 34 35 34 34 34 33 32 32 33 33 32 32 32 33 33 33 33 33 33 33 33 33 32 32 32 31 30 29 28 27
6 2 4 8 7 5 4 5 6 5 7 7 6 7 7 8 8 8 8 9 10 11 9 7 7 6 6 8 8 6 6 6 7 8 10 10 6 6 9 12 13 13 15 16 17 17 18 21 26 28 29 29 29 30 32 33 34 34 34 34 34 33 32 32 33 33 33 33 33 33 34 33 33 34 34 33 33 33 33 32 32 32 31 30 29 28 27
6 2 4 8 4 1 2 4 4 5 6 5 5 6 8 9 8 6 7 9 10 9 8 7 6 6 7 7 6 5 7 8 7 6 7 8 5 2 4 7 12 14 14 16 18 19 20 24 29 31 32 32 31 33 35 35 34 34 33 33 33 32 32 33 34 34 33 33 34 34 34 34 33 33 33 34 34 33 33 32 32 32 31 30 29 28 28
6 5 4 3 1 1 2 4 2 3 4 4 4 6 9 9 7 6 7 9 10 10 9 8 7 7 7 6 6 6 6 7 7 6 6 7 4 0 2 4 7 10 12 13 16 20 24 29 32 34 34 34 34 36 36 35 34 34 33 32 32 32 32 33 34 34 34 34 34 34 34 34 33 33 33 34 34 33 33 32 32 32 31 30 29 29 28
4 4 4 3 1 3 3 0 4 6 3 4 7 8 6 1 3 7 9 10 12 13 10 8 7 7 7 6 7 9 9 7 6 6 7 6 3 2 5 5 5 7 9 9 11 17 23 27 28 28 30 30 30 31 32 33 33 33 32 31 31 31 32 32 34 35 35 35 34 34 34 33 33 34 34 33 33 32 33 33 33 32 31 30 30 29 28
2 3 3 1 3 3 1 1 3 4 3 5 8 6 1 3 2 8 9 9 10 9 8 6 5 6 7 6 8 11 11 7 6 7 7 6 5 5 5 7 8 8 9 11 14 19 24 26 27 27 29 29 28 29 30 31 31 32 32 30 30 31 32 32 34 36 36 36 35 34 34 33 33 34 34 33 33 33 33 33 33 32 31 30 30 29 28
1 2 2 3 3 3 2 1 2 3 3 4 4 2 2 3 3 6 9 9 8 9 8 7 8 7 7 7 9 12 10 5 5 7 8 7 6 5 5 5 9 13 14 17 19 21 22 25 28 29 29 29 29 28 28 29 28 29 30 29 30 31 32 33 35 37 37 37 35 35 35 34 34 33 34 33 33 33 32 32 31 31 30 30 30 29 29
1 1 3 3 3 3 2 2 2 3 3 5 4 2 3 3 2 8 10 9 9 10 10 11 11 8 5 5 9 11 9 7 6 8 7 7 7 6 5 6 8 14 16 17 19 20 21 23 26 28 29 30 28 26 27 27 28 28 28 28 29 31 32 34 36 37 38 38 36 35 35 36 35 34 34 34 34 34 33 32 31 31 30 30 29 29 29
0 0 2 3 1 2 4 5 8 9 5 5 3 0 2 4 7 11 12 12 11 9 8 10 10 7 5 6 8 7 9 10 9 9 9 6 7 9 8 10 10 14 18 18 18 19 20 21 23 25 28 30 28 26 26 28 27 27 27 29 30 32 33 35 36 37 38 38 38 37 36 36 36 36 36 35 35 35 34 33 31 30 30 30 30 30 31
3 1 1 1 1 3 4 5 10 13 7 2 1 2 3 5 10 10 10 12 11 8 7 8 7 5 5 7 7 8 11 12 10 8 8 9 8 7 11 13 13 14 19 19 17 18 20 22 24 27 28 28 26 25 26 27 26 27 30 31 32 32 32 33 35 38 39 39 39 38 37 36 37 37 36 35 34 35 34 32 31 30 31 32 31 32 32
5 4 2 2 2 3 4 5 11 13 7 1 3 1 4 8 11 9 8 10 9 8 6 5 5 7 8 8 10 12 12 11 10 8 6 7 9 7 7 10 10 12 17 20 22 24 26 27 27 28 27 25 24 24 25 25 27 30 32 31 31 31 32 34 35 37 37 38 38 39 40 39 36 35 36 36 36 36 34 31 30 30 32 31 30 30 31
4 2 2 3 2 2 3 6 10 9 4 2 1 4 6 9 11 10 9 9 9 8 7 6 6 9 12 12 12 12 10 9 9 8 5 3 4 3 2 4 8 9 12 17 21 24 25 27 29 30 30 27 25 24 24 26 30 31 31 31 31 32 33 34 34 34 35 37 39 39 37 36 34 33 34 35 35 35 33 31 30 30 31 30 28 28 29
2 2 2 2 2 3 7 10 8 4 2 2 5 7 8 8 10 11 9 8 8 8 9 8 8 11 13 14 12 10 9 8 7 7 6 2 4 5 4 6 11 12 10 13 18 22 25 28 30 31 30 25 23 23 25 27 29 29 29 30 32 32 33 34 33 33 34 35 36 35 33 33 34 33 32 32 32 32 32 31 30 28 28 28 27 26 27
3 3 3 2 3 6 8 8 5 4 6 5 5 7 8 8 9 9 8 8 8 7 9 10 10 11 12 12 11 9 7 6 6 6 6 4 0 5 7 9 15 17 13 12 16 20 23 27 30 31 31 28 25 25 27 28 28 28 29 31 31 31 32 32 31 32 33 33 33 31 31 31 31 31 31 30 29 28 28 28 27 25 26 26 26 25 24
3 4 6 6 6 7 7 5 5 9 10 7 5 5 6 7 8 7 8 10 10 8 8 9 8 8 9 10 9 8 7 6 5 5 4 3 1 2 4 7 14 17 15 14 15 14 17 23 28 31 33 32 30 28 28 29 30 29 30 30 31 31 30 28 29 30 30 30 29 28 29 31 31 30 30 28 26 25 24 24 25 24 25 25 25 24 23
6 6 8 7 6 9 9 6 4 6 8 7 5 6 6 6 8 8 7 9 10 9 8 8 7 6 7 9 9 8 8 8 7 5 5 4 2 3 4 4 9 14 15 14 14 15 19 26 31 34 36 36 32 29 29 31 32 32 32 30 30 31 29 28 29 30 29 28 29 28 30 32 32 31 31 29 28 28 28 27 26 25 24 24 23 22 22
6 6 7 8 9 12 13 9 4 5 6 5 5 6 6 6 8 10 9 10 10 8 7 7 7 7 6 7 8 7 7 7 7 6 4 4 3 4 5 6 8 10 10 9 9 13 18 22 23 23 23 21 20 21 23 26 28 30 32 32 28 26 27 29 31 32 30 29 30 30 30 30 28 27 29 29 29 29 29 28 26 23 23 23 21 21 23
5 8 12 13 13 12 11 7 4 4 5 6 7 6 5 6 8 10 10 9 7 7 7 7 7 6 6 6 6 6 6 5 6 5 4 2 2 5 7 10 11 9 6 5 6 8 11 13 12 14 18 21 23 24 23 24 25 24 25 28 26 24 27 29 30 31 30 30 30 30 29 28 28 27 28 30 30 31 31 31 29 26 25 25 26 27 28
7 8 11 14 16 15 12 10 9 8 6 8 9 7 5 6 8 9 10 9 7 6 6 6 6 6 6 6 6 5 5 5 4 5 5 3 3 4 7 10 12 12 10 11 12 12 14 19 22 23 24 26 30 33 31 30 30 26 23 24 26 26 28 29 28 28 29 29 30 29 28 27 27 27 29 31 32 32 32 33 33 32 31 31 32 32 30
8 9 12 14 12 12 15 17 17 13 9 9 10 7 7 8 8 8 10 11 10 8 6 4 4 5 4 5 5 4 4 5 5 5 4 3 2 4 7 11 14 15 15 17 18 17 17 20 23 24 24 24 26 30 32 31 30 28 26 25 25 26 28 29 29 30 29 27 27 28 28 28 26 24 24 26 27 28 29 30 31 31 30 32 32 31 28
9 12 16 13 8 9 15 18 18 15 11 9 9 8 8 8 8 8 9 10 11 12 9 6 4 4 4 4 4 4 5 4 4 5 4 2 1 3 7 9 11 13 15 17 19 20 20 23 25 26 26 26 25 25 27 29 29 29 29 27 25 25 27 29 31 31 30 28 27 27 27 27 26 24 21 19 20 22 24 26 27 27 26 26 26 25 23
11 14 15 12 10 12 16 18 18 14 10 7 7 8 8 8 8 8 8 8 9 10 10 8 6 4 4 4 4 4 4 5 5 4 3 2 2 3 6 8 10 11 12 14 17 19 20 23 26 27 27 28 30 29 29 30 31 33 33 30 27 25 26 29 31 31 30 29 28 27 26 25 25 24 21 18 16 16 17 20 22 23 23 22 20 19 19
9 13 14 13 13 14 14 13 13 11 8 6 6 6 7 8 8 8 8 7 8 9 10 10 9 7 5 3 4 4 3 4 7 7 3 1 2 5 6 8 9 11 12 13 16 19 20 21 24 27 27 28 31 32 31 31 33 34 33 33 31 28 27 28 29 28 28 28 28 27 27 26 25 24 23 21 19 17 16 16 17 17 18 18 18 17 16
8 10 12 13 14 12 10 9 8 7 8 6 5 6 7 8 9 9 8 6 6 7 8 9 10 9 5 2 2 3 3 4 9 9 5 3 3 5 6 7 10 12 14 15 16 19 22 23 24 25 25 26 28 30 30 29 29 29 28 28 30 31 31 31 30 28 28 29 28 27 27 27 26 25 24 22 21 20 18 16 15 15 15 15 15 15 15
7 9 11 12 14 14 14 13 10 9 9 8 6 7 8 7 8 9 8 6 5 7 9 10 10 10 6 2 2 2 2 4 6 6 5 3 2 4 6 9 13 15 15 15 16 19 21 21 21 21 21 23 27 29 29 27 26 26 25 24 25 29 31 31 30 29 29 29 29 27 27 26 25 24 22 19 18 19 18 17 15 14 14 15 15 15 15
9 9 9 8 9 13 16 16 13 10 9 8 7 7 6 6 7 7 7 7 6 6 6 8 10 8 4 4 4 3 4 5 4 3 4 4 3 5 8 12 14 16 16 15 17 20 21 20 19 19 18 20 25 27 28 26 24 25 26 25 24 26 27 27 27 28 28 28 27 26 26 24 23 22 20 18 17 17 18 18 16 15 15 15 15 15 15
11 11 10 9 9 11 13 13 11 10 8 8 7 6 5 6 7 7 6 7 6 3 3 6 7 5 4 4 4 4 4 4 4 4 5 5 4 5 8 11 13 15 16 15 15 17 19 20 21 21 20 22 25 27 26 25 23 24 26 26 25 26 26 25 25 25 25 24 23 22 22 22 21 20 19 18 18 18 18 18 16 15 14 14 14 15 15
13 12 12 12 12 12 13 12 12 12 11 8 7 7 5 4 4 5 5 6 5 4 3 3 5 7 7 6 4 5 5 4 5 6 6 6 5 5 7 11 12 12 11 12 15 17 16 17 19 21 22 25 27 27 27 26 25 24 24 24 25 26 26 25 24 23 22 21 20 19 19 19 19 19 19 18 18 18 18 17 16 15 14 14 14 15 16
15 14 14 14 14 15 15 13 11 12 11 8 7 7 5 3 3 3 5 5 4 4 5 5 6 7 6 7 7 7 8 7 7 7 7 7 7 5 4 7 9 8 6 8 13 17 19 18 18 20 22 24 25 26 27 26 25 23 22 21 22 22 23 22 21 21 21 21 20 19 19 18 18 18 18 17 17 16 16 16 16 15 14 14 15 15 16
15 16 16 16 16 17 16 13 12 13 12 9 7 7 5 3 0 1 4 5 4 4 5 6 6 6 6 7 8 8 8 9 8 8 7 7 8 7 6 6 8 10 9 8 8 12 17 18 19 20 22 23 24 26 26 26 25 24 22 21 21 21 20 20 20 19 20 20 20 19 19 18 18 17 17 17 17 16 16 15 15 14 14 14 15 15 15
14 14 15 16 16 17 17 15 14 14 13 10 7 5 5 3 1 1 3 5 4 4 5 6 6 6 6 6 6 7 7 8 7 6 6 6 8 9 10 9 11 12 12 9 7 9 13 16 18 21 23 24 24 25 25 25 24 23 22 21 21 21 20 19 19 19 19 19 19 19 18 18 17 17 16 16 15 15 14 14 13 13 13 14 14 14 13
10 10 12 13 12 13 14 14 13 13 12 9 5 5 5 3 0 1 3 5 5 5 6 7 7 7 8 8 7 7 7 5 4 5 5 5 7 9 11 12 13 13 13 11 9 10 12 15 18 21 23 24 24 23 22 22 21 20 20 20 21 22 22 20 19 20 20 19 18 18 18 17 17 16 15 14 13 12 12 11 11 12 13 13 12 11 11
11 11 12 12 11 10 11 11 11 11 10 7 4 5 5 3 1 1 3 5 6 7 8 10 9 8 10 10 7 5 5 4 3 4 4 4 5 6 9 12 13 14 14 13 11 12 14 17 19 21 22 23 22 21 19 19 19 19 20 20 21 22 22 21 20 19 19 19 19 18 18 17 16 14 13 12 12 11 11 11 11 11 11 10 10 9 9
13 13 12 12 12 13 12 10 9 9 9 6 2 1 3 5 4 1 4 4 6 8 8 9 7 6 8 7 4 4 5 6 5 5 5 5 5 6 7 9 9 11 13 12 11 12 15 17 18 19 19 19 19 18 16 16 18 19 20 20 20 21 21 20 19 17 17 17 17 17 16 15 14 13 12 12 11 11 11 11 10 9 8 7 8 8 9
15 13 11 10 12 13 13 12 11 9 8 7 4 2 1 4 6 3 3 2 4 6 6 5 4 4 6 5 4 6 7 7 8 8 8 7 8 9 10 9 8 8 8 6 7 9 12 13 14 15 16 16 16 15 14 14 15 17 17 17 19 20 19 18 17 16 15 15 15 14 14 14 13 12 12 11 11 11 11 11 10 9 8 8 8 9 10
17 16 13 13 14 14 14 17 17 12 8 7 6 2 2 3 6 4 2 2 1 1 2 2 3 6 6 6 7 8 8 8 9 10 9 8 9 11 10 8 8 8 5 2 4 7 9 10 11 11 13 14 14 13 12 11 11 13 13 15 17 18 17 17 16 15 14 14 14 13 13 13 13 13 12 11 11 11 10 9 9 8 9 9 10 10 11
16 15 15 16 16 15 15 17 17 13 8 6 6 5 2 3 6 6 4 3 2 1 2 3 5 6 6 5 5 7 8 8 10 12 11 10 10 11 10 9 9 7 4 2 5 7 8 8 8 8 10 11 12 12 11 9 9 11 12 13 15 16 16 16 15 14 13 13 12 12 12 12 12 12 12 11 11 10 9 8 8 8 8 8 9 10 10
12 12 13 15 14 13 12 12 12 12 10 7 5 4 3 3 5 7 4 2 4 4 4 4 5 5 5 3 4 6 7 9 11 12 14 13 12 10 9 9 9 8 4 1 2 7 9 8 7 7 9 10 10 11 10 10 10 11 12 13 14 14 15 15 14 13 13 12 11 11 11 11 11 11 10 10 10 9 9 9 9 8 8 8 8 9 9
13 12 14 14 12 11 12 11 10 11 11 6 3 5 6 3 6 9 5 2 5 6 7 7 7 6 4 4 5 7 9 10 11 11 12 12 10 8 6 6 7 6 5 5 2 4 7 6 6 7 8 9 10 10 11 11 11 12 13 14 14 14 14 14 13 13 12 11 11 11 11 10 10 10 10 10 10 10 10 10 10 9 9 8 8 9 10
14 15 16 14 12 12 13 12 9 8 7 5 3 4 5 2 6 10 6 2 5 6 7 8 9 8 8 8 9 9 10 11 13 14 13 11 8 6 4 4 5 6 6 6 5 5 6 6 6 7 9 9 9 10 11 13 14 14 14 14 14 13 13 13 12 12 11 10 10 10 9 9 9 9 10 10 11 11 11 11 11 11 11 9 8 9 10
17 17 15 12 11 13 14 11 7 4 2 5 7 7 6 2 8 13 6 3 5 3 3 5 8 10 10 11 11 10 9 10 13 15 16 14 11 9 7 6 7 8 8 8 8 9 9 8 8 8 9 10 11 12 12 14 14 13 13 14 13 12 12 12 12 12 11 11 10 10 9 9 9 9 9 10 11 11 12 13 13 13 12 11 9 8 9
20 18 15 13 14 15 13 9 5 2 2 5 5 5 5 4 14 17 8 2 4 2 3 7 9 11 12 12 11 9 8 7 9 11 12 12 11 10 9 8 7 7 7 8 11 12 12 12 11 10 9 10 11 12 13 13 13 12 13 13 13 12 13 13 13 13 13 13 12 11 10 9 8 7 7 8 9 11 12 13 14 14 13 11 10 8 8
21 20 18 18 18 14 10 6 3 2 4 5 4 3 2 8 15 12 4 7 6 5 8 10 11 12 14 15 13 11 9 8 7 7 7 6 6 6 7 8 8 7 6 7 10 12 12 12 11 10 9 10 10 11 12 12 12 12 12 13 12 13 13 13 14 13 13 13 12 11 10 8 7 6 6 6 8 10 11 12 13 13 13 12 11 9 8
19 19 19 18 15 11 8 5 3 1 4 5 5 5 5 7 7 4 7 10 9 8 9 12 13 14 16 17 16 14 12 12 10 9 9 9 8 8 9 11 11 11 10 10 11 12 12 11 10 9 9 9 10 11 11 12 12 13 13 12 12 12 13 13 13 13 13 12 12 11 10 8 7 6 6 5 5 8 10 12 12 12 12 12 11 10 9
17 16 15 15 14 10 8 6 5 5 5 4 4 4 2 1 4 6 8 10 11 11 10 11 13 13 13 13 14 15 15 15 13 12 12 13 12 12 11 11 11 12 12 12 12 12 11 10 10 10 10 9 9 10 11 12 13 13 11 9 10 12 13 12 12 12 11 11 11 10 9 8 7 7 8 8 5 4 7 8 8 8 9 10 10 10 9
14 13 14 15 12 8 6 7 7 6 5 4 5 2 4 8 9 8 9 11 12 13 12 12 12 12 11 10 10 10 11 10 8 8 10 12 13 12 11 11 11 11 11 11 11 11 10 9 9 10 10 9 9 9 10 11 12 11 9 8 9 12 13 13 12 12 11 12 12 11 10 9 8 8 10 9 5 2 5 7 7 7 8 8 8 9 9
14 13 14 14 9 5 5 6 5 4 6 9 9 4 9 13 11 9 10 14 16 16 16 16 14 13 12 11 10 10 10 10 10 10 11 12 13 12 12 12 12 10 10 10 10 10 9 9 10 10 10 9 9 9 9 9 10 11 10 9 10 12 13 12 12 11 10 11 11 11 10 10 9 8 9 8 6 4 6 8 8 8 8 8 8 7 8
16 14 13 13 11 10 8 6 4 6 9 8 5 9 13 13 10 8 11 16 19 18 18 18 17 15 15 14 14 15 16 17 16 15 14 14 14 14 14 14 14 13 12 12 12 12 11 11 10 10 9 9 8 8 10 10 11 11 11 10 11 12 13 13 13 12 12 13 13 12 11 10 8 7 6 7 7 7 8 8 8 7 7 7 7 7 6
16 14 13 13 14 14 12 10 8 8 7 2 8 13 14 14 12 10 10 13 16 16 17 17 17 16 16 17 17 18 18 17 17 17 17 17 17 17 16 16 17 16 15 15 16 16 16 17 17 16 14 13 11 10 10 10 10 10 11 10 10 11 11 11 11 12 13 13 13 12 10 8 7 6 6 5 6 6 7 8 7 7 7 6 6 6 6
17 17 18 19 18 15 13 13 15 15 12 11 13 14 14 16 16 13 11 11 13 16 16 15 14 15 17 18 17 16 16 16 16 17 17 17 16 16 15 16 17 18 17 17 17 17 17 18 19 19 18 17 16 15 14 13 12 11 9 9 8 8 8 8 9 10 11 12 11 9 7 6 6 6 6 6 6 6 7 6 6 6 6 7 8 8 7
Wind_Direction
242 247 260 261 252 246 244 241 232 219 215 209 206 221 219 168 173 249 260 266 271 271 276 284 289 291 291 287 285 297 308 303 311 327 321 300 261 216 197 189 188 185 179 177 177 178 179 178 178 178 179 182 182 181 181 180 180 181 180 180 181 182 183 184 184 183 184 187 189 189 189 191 192 194 197 199 201 201 202 205 207 208 209 210 210 210 212
251 233 248 253 245 249 253 246 240 224 213 210 214 223 214 186 211 239 255 270 270 266 270 277 281 280 271 269 281 299 310 317 331 332 321 300 253 213 195 187 185 185 181 177 176 176 176 175 176 177 178 181 182 182 181 179 180 181 180 180 181 182 184 185 184 183 183 185 187 187 188 190 192 192 193 195 196 197 201 204 206 206 208 210 211 211 211
272 228 234 243 234 235 252 259 260 239 217 213 219 226 213 206 234 245 253 266 269 267 268 268 268 269 269 281 301 310 307 327 339 330 321 310 263 215 194 185 184 181 178 177 176 175 176 177 177 177 179 181 182 182 180 180 181 181 181 181 182 184 185 185 183 182 183 185 186 187 188 190 191 191 191 192 194 196 198 201 203 204 206 209 211 213 213
295 247 256 269 250 223 242 279 288 253 216 203 210 217 211 212 231 248 254 259 262 265 270 269 258 260 281 298 306 308 310 332 337 318 316 317 287 226 199 186 180 179 177 177 178 180 180 179 179 180 180 180 181 181 181 182 182 181 182 182 183 185 185 183 182 182 182 184 184 186 188 190 189 189 189 191 192 194 195 198 200 202 206 209 211 213 214
294 300 315 299 302 42 272 265 264 249 238 226 211 210 218 219 219 229 242 245 252 265 278 280 276 287 301 304 302 299 304 314 311 294 302 312 307 252 208 193 184 183 183 181 182 183 181 181 182 182 180 179 181 182 182 182 181 180 182 183 183 184 183 182 181 181 182 183 183 185 188 189 188 186 187 190 191 193 196 198 199 201 205 209 211 212 212
287 306 335 336 34 56 253 238 265 306 279 259 248 240 235 227 216 228 252 257 262 272 277 267 263 275 283 282 282 278 272 279 285 281 285 296 307 93 191 210 194 190 192 190 187 185 184 185 184 183 182 182 183 182 181 179 179 181 183 183 183 183 182 181 181 180 181 182 182 184 187 187 186 186 187 189 190 193 196 196 196 200 204 207 210 212 212
275 315 9 40 219 232 232 335 14 6 341 303 302 283 255 248 323 298 289 282 275 274 270 253 247 265 280 291 297 290 277 263 259 264 266 270 277 234 199 190 184 195 202 198 192 188 186 184 182 181 184 184 182 180 178 177 179 181 182 182 182 182 181 181 180 179 180 181 182 183 185 184 184 185 186 187 189 192 195 195 197 201 205 208 209 210 213
281 336 24 3 277 273 290 58 23 13 348 326 328 320 358 76 333 291 289 291 291 289 279 266 276 300 320 332 308 288 280 263 239 244 249 241 240 242 216 183 170 180 195 196 194 192 186 181 179 182 184 182 178 178 179 178 180 180 180 181 181 181 181 180 179 179 179 179 181 182 182 182 182 183 184 186 189 192 193 195 198 202 206 209 210 211 213
292 310 285 277 312 346 7 63 43 11 321 309 322 314 245 195 220 299 313 314 327 338 330 324 328 328 339 342 307 290 290 282 247 245 241 227 224 244 252 212 176 174 188 198 199 195 186 181 182 182 181 179 176 176 178 179 180 180 180 182 182 181 180 180 179 178 179 179 181 181 181 181 181 182 183 186 190 191 191 193 196 201 205 208 210 212 214
305 313 297 323 11 0 306 284 325 327 278 253 243 246 257 241 315 345 333 325 341 352 345 339 337 332 338 321 291 291 309 323 309 288 265 226 206 217 253 247 191 174 181 192 196 194 188 187 187 182 177 176 175 175 178 179 180 181 182 183 183 181 181 180 179 178 179 180 181 181 181 181 181 183 184 187 190 192 192 194 197 202 206 207 210 214 217
328 101 296 326 8 283 274 296 326 334 307 242 228 63 280 295 346 349 335 331 341 346 340 335 331 325 307 278 273 297 322 320 312 307 299 266 212 194 209 229 210 179 173 178 184 187 187 187 188 182 178 176 174 175 178 179 179 181 183 184 184 182 182 180 178 178 179 181 182 182 182 182 183 184 185 188 191 193 194 196 200 204 206 206 210 215 218
334 347 313 300 253 262 274 304 331 334 317 247 85 54 266 310 345 342 325 321 324 325 328 327 316 291 262 263 288 315 316 306 297 291 288 278 252 208 197 214 213 184 171 169 170 179 186 187 186 182 179 177 177 179 179 178 180 184 186 186 185 182 180 178 177 179 181 183 183 183 184 185 185 186 186 187 189 191 193 197 201 204 205 206 209 213 216
335 349 346 304 273 264 270 315 334 332 324 36 78 167 266 313 329 321 306 304 302 302 306 300 287 276 268 279 300 305 300 298 297 295 285 267 262 251 213 207 199 178 173 175 178 186 189 186 181 179 178 178 181 182 179 180 185 188 186 184 182 179 177 176 178 181 182 183 183 185 188 188 187 186 187 188 190 192 193 195 198 200 202 203 207 210 213
341 341 288 286 294 266 286 326 335 335 340 14 304 275 289 312 315 310 305 295 291 291 281 260 262 277 283 291 294 289 289 291 292 300 305 250 231 249 243 195 176 176 191 191 187 189 188 182 180 180 180 182 184 181 181 187 190 186 182 180 179 176 174 176 178 180 182 183 186 188 188 186 183 184 186 189 191 191 191 192 195 197 199 200 203 207 211
312 304 318 343 332 303 319 333 340 347 350 281 274 289 307 313 310 310 304 291 292 296 292 289 291 292 295 296 288 283 293 301 300 307 312 278 167 151 143 153 163 177 201 202 192 189 185 182 183 182 181 183 184 183 188 191 187 180 178 177 175 173 173 175 178 181 183 186 188 188 186 183 181 181 184 187 189 190 189 189 191 193 196 197 198 202 208
336 342 348 335 265 280 305 323 322 296 289 281 278 296 310 313 312 311 306 302 299 291 289 296 299 297 297 295 290 291 297 297 297 303 311 323 176 162 162 164 169 176 190 203 200 194 185 182 184 185 183 183 187 191 192 186 178 174 174 173 171 171 172 174 177 182 185 188 189 187 183 180 177 177 182 185 186 188 188 185 185 189 193 194 195 199 203
303 282 267 258 262 280 289 287 283 290 292 286 272 276 288 301 307 306 304 303 301 298 293 288 284 288 291 291 295 300 295 278 264 262 271 286 263 163 152 165 175 178 182 186 186 185 186 187 189 189 186 184 187 191 187 177 171 169 168 168 169 171 172 173 176 180 183 183 182 179 177 178 179 179 181 181 180 182 184 184 186 189 191 193 195 197 198
292 266 254 261 288 300 295 280 254 275 289 292 284 277 279 293 301 299 295 295 297 302 298 289 285 287 291 296 304 305 296 279 254 229 225 230 205 130 102 133 177 182 182 176 166 166 181 195 200 198 194 191 189 185 177 170 168 166 165 167 170 171 170 170 174 177 177 175 174 174 178 183 186 185 182 180 180 182 184 187 190 191 190 191 194 194 197
306 297 289 304 313 305 303 303 276 258 275 283 279 274 274 290 301 298 295 295 296 294 289 287 293 298 305 313 311 304 299 286 268 246 219 197 165 128 122 134 157 170 175 174 166 166 180 199 210 204 188 177 168 159 155 157 160 163 166 168 169 166 163 165 172 177 175 171 170 174 178 181 183 183 183 182 182 181 182 184 187 189 190 189 188 194 201
296 289 291 305 308 294 289 291 278 268 271 273 275 272 270 290 300 296 294 297 295 292 291 290 296 309 321 324 310 301 301 292 282 280 272 242 115 111 126 134 140 142 135 129 129 131 142 153 153 140 130 128 132 138 146 154 159 163 168 168 163 157 156 162 171 175 173 169 168 171 175 178 181 184 185 185 186 187 188 190 189 188 188 190 195 204 206
303 290 299 321 325 317 314 316 312 307 298 292 295 295 288 293 294 293 302 309 302 295 297 297 306 320 325 321 315 308 303 299 297 303 310 329 30 87 111 121 127 124 113 110 110 107 116 128 132 132 136 143 148 153 160 166 166 168 172 167 157 152 155 160 166 168 170 171 171 170 172 177 183 187 189 191 193 194 196 199 200 199 199 200 206 210 207
313 309 317 328 330 318 314 314 313 312 307 297 296 299 304 305 301 306 320 325 320 318 321 321 323 328 323 319 321 315 307 310 314 315 319 341 40 103 115 114 116 117 116 116 116 114 118 124 125 126 130 137 147 155 162 166 166 166 166 160 152 151 155 159 163 166 168 170 170 170 172 176 180 185 190 195 198 199 200 202 204 207 208 209 211 211 207
290 297 304 310 308 293 292 298 303 307 306 295 290 295 303 303 300 311 328 332 328 327 331 337 343 336 320 320 331 330 315 307 308 309 306 302 124 133 133 125 118 117 119 120 122 127 132 131 129 129 131 137 147 157 164 166 166 164 160 154 150 154 158 160 164 166 166 167 170 172 174 175 177 179 181 188 197 203 204 204 204 207 211 213 216 216 214
287 293 296 302 301 291 288 293 298 300 298 291 287 292 297 297 303 319 332 332 326 322 322 330 346 350 332 330 346 339 309 295 304 309 290 232 148 127 132 132 127 126 129 131 133 140 144 142 138 138 141 148 156 163 168 170 167 165 163 158 155 157 161 163 165 166 166 168 169 170 171 174 178 178 174 174 181 194 203 206 208 209 212 216 220 222 223
274 286 296 302 294 285 286 291 293 292 292 287 280 286 294 301 311 320 325 325 323 322 323 332 344 350 347 346 344 331 309 314 328 330 326 350 66 78 95 116 126 129 136 142 142 142 144 143 141 141 145 153 161 167 172 171 167 165 166 163 160 159 161 162 163 165 166 168 169 171 173 175 177 179 178 176 177 181 188 197 204 209 215 221 225 225 223
266 288 308 313 307 305 312 313 309 311 312 300 278 283 295 300 304 307 308 308 312 318 329 337 335 328 329 12 1 330 340 357 350 349 357 18 41 57 77 111 126 127 134 144 146 144 144 144 143 142 145 153 160 165 169 168 165 165 165 162 159 162 165 165 165 167 170 171 173 175 176 178 180 183 185 186 184 179 176 179 189 199 205 211 217 219 220
306 323 336 334 327 328 327 318 309 307 308 301 288 285 289 291 295 299 299 298 308 332 348 343 320 303 307 10 39 2 23 33 17 4 359 0 33 75 107 127 129 125 128 137 142 142 142 141 138 135 138 148 155 158 161 162 162 165 167 163 160 163 167 168 168 170 172 174 175 176 177 180 183 184 185 186 185 182 178 178 183 189 194 199 204 209 213
324 335 345 336 315 308 307 304 298 290 288 289 285 284 292 303 304 302 306 315 331 353 347 318 293 284 305 11 27 24 35 49 49 25 359 359 37 102 123 129 128 127 127 128 131 135 135 131 127 126 132 145 152 152 153 157 160 162 164 165 162 162 165 167 169 171 172 174 175 175 176 178 181 183 182 181 180 182 186 189 189 190 193 197 201 205 210
329 331 335 324 303 297 302 310 314 309 297 289 288 293 307 313 305 303 314 326 333 336 281 273 284 313 358 19 35 44 39 36 42 36 26 32 63 111 125 123 117 117 118 117 119 125 131 133 133 134 142 152 156 154 156 161 163 162 163 164 164 163 164 168 170 170 170 170 171 172 174 175 178 180 179 178 180 184 189 191 190 188 190 195 200 204 209
325 326 328 323 321 322 324 328 329 319 307 301 299 297 302 315 320 325 331 330 327 325 316 324 357 10 6 0 18 46 55 52 51 50 49 56 69 97 121 120 111 104 109 120 124 127 132 136 136 139 147 153 156 158 161 165 166 164 163 164 165 165 166 168 169 167 165 165 167 170 173 175 178 178 178 179 182 185 187 188 187 186 189 196 203 207 210
322 323 324 326 331 334 331 331 327 316 310 310 302 296 313 8 23 350 330 326 326 333 347 11 23 16 356 347 3 34 59 65 61 62 66 69 69 72 95 113 111 103 106 125 134 138 141 140 139 145 152 155 157 160 163 165 164 162 160 160 161 163 166 167 165 165 164 164 166 169 171 173 177 178 177 177 178 180 181 183 185 187 190 198 206 212 215
325 327 330 334 338 336 332 329 326 322 320 316 304 304 322 346 348 301 318 323 326 341 9 27 22 0 351 358 12 32 51 56 55 56 61 65 66 60 57 76 98 103 101 100 118 138 143 142 143 149 156 159 161 164 165 166 163 160 159 159 158 160 163 165 164 166 167 167 168 170 172 174 177 179 179 179 180 181 182 183 186 189 195 204 211 217 220
334 333 332 333 333 331 326 322 320 319 313 303 296 308 312 294 252 293 314 311 322 356 26 31 12 359 11 28 35 39 44 47 46 41 38 46 59 67 74 84 93 97 97 95 105 131 141 140 141 148 154 158 161 163 165 166 163 160 159 159 157 158 162 165 166 167 167 169 171 174 175 177 180 183 184 185 186 186 186 188 192 195 201 211 218 223 228
326 319 313 312 312 312 309 307 307 307 302 298 306 320 313 304 6 353 317 323 346 10 20 11 3 18 44 50 45 43 46 42 17 354 0 28 54 70 86 97 98 96 95 99 112 131 140 140 141 147 153 157 158 159 161 162 161 159 158 159 159 160 162 165 167 166 165 167 171 174 176 178 181 183 186 186 187 189 192 196 201 203 207 215 222 228 235
317 312 307 303 301 297 292 290 293 294 291 291 311 323 309 291 242 2 358 354 346 351 6 7 6 36 58 52 36 36 48 42 0 348 16 50 67 83 99 106 106 102 99 100 114 134 145 147 147 150 153 153 154 155 157 158 158 157 157 158 160 160 161 163 164 165 165 167 169 172 175 178 180 182 185 187 189 195 201 204 207 209 213 219 227 235 241
321 318 313 309 311 312 308 301 295 290 280 267 254 341 322 297 281 321 51 21 339 344 8 8 4 39 62 52 23 18 29 29 34 54 77 93 100 99 95 94 98 101 98 97 109 132 145 149 149 149 149 147 146 147 151 155 156 155 154 156 157 158 158 159 160 161 163 165 168 171 175 178 180 183 187 190 192 197 203 207 211 216 222 230 239 244 245
319 315 310 309 314 316 314 309 303 294 283 272 254 163 139 279 277 268 100 60 332 343 9 5 2 52 64 46 30 38 37 38 57 79 98 112 108 94 81 68 64 71 75 82 109 135 148 152 151 149 145 142 141 144 149 153 152 149 150 153 155 154 154 155 156 158 161 165 170 174 176 178 180 183 186 191 194 198 205 211 216 220 225 231 236 241 242
316 313 310 312 315 315 311 310 307 297 280 276 279 259 173 230 257 248 172 157 249 322 46 70 84 80 68 45 35 39 42 58 79 90 99 104 97 85 72 56 53 58 59 80 148 155 159 161 159 154 147 144 145 147 150 152 151 148 149 153 154 152 153 155 156 159 163 168 174 177 177 179 181 183 186 191 196 199 207 215 222 226 229 232 235 238 240
316 315 314 316 318 314 310 310 309 298 275 263 279 286 254 215 235 241 212 161 151 91 87 114 111 87 65 47 29 27 41 75 98 102 100 99 93 84 69 52 54 69 88 173 177 167 167 170 168 159 150 150 153 151 148 153 158 155 153 155 154 154 156 158 158 160 165 169 173 177 179 182 185 186 188 192 196 202 211 219 227 235 238 238 239 240 240
311 312 315 317 317 313 310 310 308 296 277 256 245 238 209 207 254 267 253 130 79 44 45 99 115 96 65 37 17 28 55 85 101 105 106 105 97 85 68 46 43 53 52 14 160 161 165 168 167 159 152 153 159 159 159 166 171 164 159 159 158 157 160 162 161 162 166 169 174 177 180 183 188 191 194 198 201 207 215 221 226 232 236 238 239 239 239
307 310 314 313 312 311 308 304 299 294 288 274 215 174 168 191 276 280 261 151 85 63 61 74 89 94 86 81 79 79 85 91 93 98 107 109 99 85 66 36 32 49 54 39 61 159 168 164 164 171 170 167 169 172 174 176 176 172 169 169 167 165 166 167 166 167 169 172 176 179 180 183 189 193 199 206 210 212 216 220 223 225 229 233 238 242 244
309 312 314 312 309 307 305 299 292 289 297 325 38 101 127 155 275 274 258 137 90 73 71 81 97 112 117 112 103 92 89 92 93 91 90 90 91 100 102 74 70 94 104 92 99 139 157 158 174 193 192 182 181 187 188 185 182 180 178 177 174 173 173 172 170 171 173 175 177 180 180 183 188 194 199 207 213 217 217 220 223 226 228 229 233 241 246
310 310 309 308 306 302 301 298 289 276 313 29 43 58 77 43 295 286 283 90 88 75 77 104 121 127 123 114 103 90 81 87 93 92 87 82 82 93 101 95 96 112 125 126 126 131 136 145 162 181 190 191 195 200 199 193 190 188 185 182 180 179 181 180 177 175 176 176 177 181 182 183 188 196 204 210 215 218 220 222 224 227 229 228 228 235 241
308 306 304 303 302 300 297 293 280 242 100 68 67 85 89 327 296 289 283 113 105 111 120 121 122 119 113 107 100 89 79 78 84 90 92 86 77 77 85 90 92 100 114 127 131 131 132 136 141 146 158 172 185 193 197 196 194 191 187 185 184 185 186 185 181 180 183 182 180 179 180 180 183 191 204 214 219 221 221 222 224 226 227 226 224 224 228
302 300 299 299 297 297 300 301 282 162 109 76 59 67 23 303 290 278 219 143 132 128 127 127 124 116 111 108 103 96 91 84 77 80 89 86 71 71 85 94 96 97 107 119 124 127 131 134 132 130 134 142 154 170 183 188 188 185 184 186 189 190 189 189 187 187 188 188 183 178 176 176 178 188 208 225 231 231 228 227 228 230 231 229 225 224 226
293 292 296 299 299 296 291 282 263 115 69 33 2 344 317 284 265 216 145 136 134 127 126 130 130 124 119 117 113 106 94 82 71 71 83 93 98 101 103 103 103 103 105 107 108 112 119 125 128 133 141 144 148 158 169 173 174 175 178 184 190 192 192 192 193 191 189 187 183 177 174 175 181 191 200 208 227 241 242 240 238 236 234 233 234 237 238
293 293 298 303 303 296 282 273 289 333 0 360 340 337 351 140 140 123 119 125 128 125 122 123 123 122 121 119 115 109 99 89 79 77 83 92 98 100 102 105 105 102 100 100 98 99 106 119 130 137 143 146 148 156 166 172 175 179 183 189 192 193 194 195 194 193 191 190 185 180 177 180 190 198 194 183 183 226 241 236 231 228 226 228 235 237 234
301 303 307 306 300 295 304 314 318 325 328 313 303 315 115 121 119 109 105 108 106 100 94 91 90 92 93 92 89 87 86 85 83 82 85 90 93 91 90 92 95 97 100 103 103 103 110 126 137 142 143 144 146 156 170 179 184 191 199 196 184 185 191 195 195 195 195 192 187 184 181 177 179 187 187 176 164 223 245 228 216 213 215 216 220 224 225
325 331 336 334 333 342 351 343 331 316 310 308 298 252 148 130 115 96 91 93 91 85 81 77 74 73 72 70 64 62 66 77 89 92 87 81 79 78 79 81 84 89 96 104 107 109 115 126 137 146 150 151 154 164 177 185 190 196 201 193 180 179 185 189 188 191 192 188 182 181 178 171 168 178 187 186 187 215 225 214 208 209 210 209 212 220 227
343 353 357 353 353 0 6 6 345 315 308 301 248 175 147 124 99 78 84 92 92 88 80 74 71 71 72 73 76 80 84 87 89 86 77 70 70 73 76 76 77 82 89 95 99 102 106 111 119 130 139 145 153 166 177 181 182 183 183 181 178 181 184 183 181 181 182 181 178 177 175 172 174 186 202 210 215 215 209 203 201 202 203 208 218 231 240
352 359 357 353 358 5 10 16 10 342 329 30 122 129 122 105 90 79 80 89 94 92 81 71 66 68 75 81 84 86 86 85 81 77 74 74 75 75 72 68 69 75 84 90 92 93 94 97 98 99 102 106 111 119 130 141 149 156 163 169 176 183 187 190 188 181 176 172 171 170 170 173 179 187 193 203 207 204 203 207 208 203 201 208 220 231 243
360 7 9 9 9 8 10 23 32 32 35 60 83 95 102 101 93 81 70 76 88 93 89 79 66 64 75 86 91 90 88 87 84 81 80 81 79 75 70 67 67 72 78 84 86 86 88 91 93 93 93 94 96 97 99 103 107 112 122 136 148 156 163 169 173 172 169 165 161 158 162 178 193 195 196 200 202 200 203 210 211 211 221 235 239 238 243